Погода в Чинаре

Россия / Республика Дагестан     42°06′25″N   48°08′38″E
темп.,
°C
ветер,
м/с
пор.,
м/с
влажн.,
%
обл.,
%
осадки,
мм/ч
давл.,
гПа
погр.,
м
21 апреля, ср
ср2100:00+17ссз1159100 0.0 100712
03:00+15сз4467100 0.0 101043
06:00+13ссз4579100 0.0 1012160
09:00+16с5674100 0.0 1015439
12:00+17с5668100 0.0 1016598
15:00+17с786411 0.0 1016683
18:00+16ссз71160100 0.0 1019638
21:00+12с4584100 0.2 1020198
22 апреля, чт
чт2200:00+12с1183100 0.0 102025
03:00+11зсз1186100 0.0 102017
06:00+13сз1179100 0.0 102197
09:00+16с225998 0.0 1020709
12:00+16ссв556140 0.0 1021680
15:00+15с676593 0.0 1021853
18:00+13ссз4766100 0.0 1021582
21:00+14зсз3667100 0.0 1021443
23 апреля, пт
пт2300:00+13ссз3377100 0.1 101965
03:00+11сз348247 0.1 101987
06:00+12сз347875 0.0 1020290
09:00+14с896374 0.0 10211061
12:00+14с896387 0.0 10221068
15:00+13с467192 0.0 1022680
18:00+13сз236637 0.0 1023374
21:00+10ююв11800 0.0 102311
24 апреля, сб
сб2400:00+10ю338488 0.0 102134
03:00+10ю457879 0.0 102065
06:00+11ю4770100 0.0 1018172
09:00+15вюв45619 0.0 1018721
12:00+15св445717 0.0 1018767
15:00+14св335783 0.0 1019611
18:00+13юв2263100 0.0 1020216
21:00+11ююз33725 0.0 102030
25 апреля, вс
вс2500:00+10ююз117431 0.0 102010
03:00+10ююв22781 0.0 101912
06:00+12юз2269100 0.0 101961
09:00+16вюв22537 0.0 1017572
12:00+17в434996 0.0 1014681
15:00+17вюв325291 0.0 1012450
18:00+14ссз5661100 0.0 1012301
21:00+13сз446211 0.0 101361